Wind_Speed
53 51 49 47 46 45 44 43 43 43 42 42 42 42 43 44 44 43 42 42 41 41 40 39 38 37 36 35 33 32 32 31 29 28 27 27 25 23 22 21 22 23 25 28 31 34 35 35 35 35 34 34 33 33 33 33 33 34 34 34 34 34 34 34 34 34 35 35 34 33 33 32 32 32 32 31 30 29 28 27 27 27 28 30 31
53 51 50 48 47 46 45 45 44 44 44 43 43 44 45 45 45 44 42 42 41 41 41 39 38 37 36 35 34 33 33 32 30 29 29 29 27 24 23 22 22 23 25 28 31 34 36 37 36 36 36 35 35 34 34 34 34 34 34 34 34 34 34 35 35 34 34 35 34 34 33 33 33 33 33 33 32 31 30 29 30 31 33 34 36
54 52 52 50 48 47 46 46 45 45 44 44 44 45 46 46 45 44 43 43 42 42 41 39 38 37 36 35 34 34 33 32 31 31 31 31 29 26 24 24 23 24 25 28 31 33 35 37 38 38 38 37 37 37 36 36 36 35 35 35 35 34 34 34 34 34 34 34 34 34 34 35 35 35 36 36 35 33 33 33 34 36 38 39 39
54 53 53 52 50 49 48 47 46 46 45 44 45 45 46 46 45 44 43 43 41 41 41 39 37 36 35 35 34 33 33 33 32 32 32 32 31 29 27 25 25 25 26 27 29 32 34 37 39 40 41 40 39 39 39 38 38 37 37 36 36 35 35 34 34 34 33 34 34 36 37 38 40 40 40 39 38 37 36 37 39 41 42 42 42
53 55 55 53 51 50 49 48 47 46 45 44 44 45 46 46 45 44 43 42 40 39 39 37 35 34 34 34 33 33 33 33 33 34 34 34 33 31 29 27 27 27 27 27 28 31 34 36 38 40 41 42 42 41 41 40 40 40 39 39 38 38 37 36 36 36 36 37 38 39 40 42 43 43 43 43 41 40 40 41 43 44 45 45 45
53 57 56 53 50 49 48 48 47 46 45 45 45 46 46 45 44 43 42 40 39 38 38 36 34 34 34 34 34 34 35 34 35 35 36 36 35 33 32 30 30 29 29 28 28 30 32 35 36 38 40 42 43 43 43 43 43 42 42 41 41 41 40 39 39 40 41 42 43 43 44 43 43 43 44 44 44 43 44 46 48 48 48 48 49
51 55 55 51 47 46 45 46 46 46 46 46 46 46 45 43 43 42 41 39 38 37 37 36 35 35 36 36 36 36 36 36 36 36 36 36 36 34 34 33 32 31 31 30 29 29 31 33 35 36 38 41 42 43 44 44 44 44 44 43 43 42 42 42 43 43 44 45 45 45 44 43 42 42 43 44 46 47 48 51 52 51 51 52 52
49 51 52 49 45 42 41 42 43 45 47 47 47 46 43 41 41 42 41 39 38 37 37 37 37 37 37 37 37 37 37 37 37 36 36 36 36 35 36 36 35 34 33 32 31 30 30 31 33 35 37 38 40 41 41 42 42 42 42 43 43 43 42 42 42 42 43 43 43 42 41 41 41 41 43 45 47 49 51 52 54 54 54 55 55
49 51 51 49 46 43 41 41 41 44 46 46 45 44 41 40 40 41 41 40 39 38 38 38 38 38 38 38 38 38 37 37 37 36 36 36 36 36 36 37 37 37 36 35 34 33 31 31 32 33 35 37 38 39 40 40 40 40 40 41 41 41 41 41 41 40 40 40 40 40 40 40 41 42 43 45 48 50 52 53 54 55 55 56 57
51 53 53 50 48 46 44 43 42 43 44 43 42 41 40 39 39 40 41 41 40 40 39 39 39 39 39 39 38 38 38 38 38 37 37 37 37 37 37 38 39 40 39 38 36 35 33 32 31 32 35 36 38 39 39 39 40 40 40 40 40 40 40 40 40 40 40 40 41 41 42 42 43 44 46 48 49 51 52 53 54 55 56 57 59
53 54 55 53 51 49 46 45 44 44 43 42 41 41 40 39 39 40 41 42 42 41 41 40 39 39 39 39 39 39 39 40 40 39 39 39 39 39 38 39 40 41 41 40 39 38 36 34 33 33 35 37 38 39 40 40 40 41 41 41 41 41 41 41 42 42 42 43 43 44 45 46 47 47 49 50 50 51 52 53 55 57 59 60 63
50 54 57 56 54 52 49 48 47 46 45 44 42 42 41 41 41 42 43 43 43 43 42 41 41 40 40 40 40 41 41 42 42 42 42 42 41 40 39 39 40 42 43 43 42 41 39 38 36 36 37 38 39 40 41 41 42 42 43 43 44 44 44 44 45 45 45 46 46 47 48 49 49 50 50 51 52 53 54 57 59 62 63 65 67
42 50 57 58 56 54 52 50 49 48 47 46 45 45 44 44 44 44 44 44 44 44 44 44 44 43 42 41 41 42 43 44 44 45 44 44 44 43 41 40 40 42 44 45 44 43 42 41 41 40 40 41 41 43 44 44 44 45 46 46 47 47 47 47 47 47 47 48 48 49 50 51 52 52 53 54 55 57 59 61 64 65 67 68 70
38 45 54 60 59 57 55 54 51 50 50 49 48 48 48 48 47 47 47 47 46 46 45 46 46 45 43 42 42 43 44 45 45 46 46 46 46 45 44 42 42 42 44 45 46 45 44 44 44 44 44 44 44 45 47 47 48 48 49 49 49 50 49 49 48 48 49 49 49 50 51 52 54 55 56 58 59 61 62 64 66 67 69 70 72
41 43 51 59 61 59 57 56 54 53 53 53 53 53 52 52 51 50 49 48 47 47 48 48 48 47 45 45 45 44 45 45 45 45 46 47 47 47 46 45 44 43 44 45 46 47 47 46 46 47 47 48 48 48 49 50 50 50 50 51 52 52 51 50 50 51 50 50 50 52 53 54 56 57 59 60 61 62 64 65 67 68 70 72 74
45 44 49 56 61 61 59 58 57 56 57 58 57 57 56 56 55 54 53 52 51 50 51 50 50 49 48 47 46 46 46 45 45 45 46 48 49 49 49 47 46 45 44 45 46 47 49 49 49 49 50 51 51 51 51 50 50 50 51 52 53 53 52 52 52 51 50 51 52 54 55 57 59 60 61 62 63 64 65 66 67 70 72 74 75
49 48 50 53 58 62 60 58 59 60 60 60 60 59 59 59 58 57 56 55 54 53 53 52 52 51 49 48 47 47 48 47 46 46 46 47 48 49 49 49 48 47 46 46 46 48 49 51 52 52 52 53 54 54 53 52 51 51 52 52 53 52 52 53 53 52 52 54 56 57 59 60 61 62 63 64 65 66 67 68 70 72 74 75 76
50 51 53 54 56 61 62 58 59 60 60 60 60 60 60 60 59 58 57 56 55 54 54 53 53 52 50 49 49 49 49 49 47 46 45 46 46 47 48 49 49 49 48 48 48 48 49 51 53 54 55 55 55 56 55 55 54 54 53 53 53 53 54 55 55 55 56 57 59 60 61 62 63 64 65 66 67 68 69 71 73 74 75 75 76
53 52 52 52 53 61 65 61 60 62 62 61 60 60 61 61 60 60 59 58 57 56 55 55 54 53 52 52 52 51 50 50 48 45 43 44 44 44 45 47 48 49 50 50 49 49 50 51 53 55 56 58 58 57 56 56 56 56 56 57 57 57 57 57 57 57 58 59 59 60 61 62 64 65 67 68 69 70 71 72 73 73 74 74 76
54 54 53 53 54 58 62 61 61 63 64 64 64 63 63 63 63 63 62 60 59 58 57 56 56 55 55 54 53 51 51 49 47 45 44 43 43 43 44 44 45 47 49 50 51 51 51 51 52 53 55 57 58 59 58 57 57 57 57 58 59 60 59 59 58 58 59 59 59 60 62 64 66 67 68 69 70 70 71 71 71 72 73 74 76
54 57 58 57 57 59 60 59 57 57 58 61 64 65 65 66 67 66 64 63 62 61 59 58 58 57 56 55 53 51 51 50 48 46 45 43 42 43 44 43 44 45 46 48 50 51 52 52 53 54 55 56 57 58 58 58 58 58 57 58 59 59 59 59 58 58 57 58 59 61 64 66 68 69 69 69 69 69 69 70 71 72 74 76 78
54 59 61 59 58 60 61 57 53 50 50 51 54 57 59 62 65 67 66 64 63 63 62 59 59 59 57 55 54 52 51 51 49 48 46 43 43 45 45 44 44 45 46 47 48 49 51 52 54 55 56 57 57 57 57 58 58 58 58 58 59 60 60 60 59 58 58 59 61 64 66 68 69 69 69 69 69 69 69 71 72 74 76 78 79
54 58 62 60 58 59 59 55 52 50 49 48 47 47 47 49 53 59 64 66 65 64 63 61 60 60 59 56 55 53 52 52 50 48 46 44 44 47 48 47 46 46 45 45 45 47 49 51 53 55 56 57 57 56 56 57 58 58 58 58 59 61 61 61 60 60 61 63 65 66 67 68 68 68 68 68 69 70 71 73 75 76 77 78 79
55 54 58 61 60 60 59 56 53 50 49 49 49 47 45 44 43 46 55 64 67 64 63 63 62 61 59 58 56 54 53 53 51 49 46 44 45 48 50 50 49 46 45 44 46 48 49 49 51 52 53 55 56 56 56 57 57 57 57 58 60 61 61 61 62 63 65 66 66 67 67 67 67 67 68 69 70 72 73 75 76 76 77 77 78
59 54 55 60 62 62 60 58 55 49 45 46 46 45 44 46 43 41 45 56 63 64 63 63 63 61 59 58 57 55 55 54 52 50 48 46 46 48 51 52 49 47 47 47 48 49 49 49 51 52 54 56 57 56 57 57 57 57 58 59 60 60 61 62 63 64 65 66 66 66 66 66 67 67 68 70 71 73 74 75 75 75 75 76 76
55 54 53 54 56 57 57 57 56 53 48 45 44 44 45 47 46 44 44 48 55 61 63 63 62 61 60 59 58 57 56 55 53 51 50 48 46 48 52 53 50 48 49 49 49 50 50 51 53 55 58 60 60 58 58 58 58 58 58 58 59 60 61 62 63 64 64 65 66 66 66 67 67 68 69 70 72 73 74 74 74 74 74 74 75
46 47 47 48 49 51 53 55 57 57 54 51 49 49 51 50 48 48 49 49 51 58 63 63 62 61 59 60 60 59 57 55 54 52 51 49 49 51 53 53 51 51 51 50 49 51 51 52 55 59 61 61 60 58 58 58 57 56 56 57 58 60 61 61 62 63 64 65 66 67 67 68 68 69 71 71 72 73 73 73 73 72 72 74 75
44 45 46 47 47 48 50 54 58 58 56 53 52 52 52 52 49 49 50 52 52 56 59 60 60 59 58 60 61 59 57 55 53 51 49 49 51 53 54 53 51 51 51 50 50 51 53 54 57 60 60 58 58 58 57 55 54 54 55 57 58 59 60 61 62 64 65 66 67 68 69 69 70 71 72 72 72 72 72 72 72 71 73 74 75
47 48 49 49 49 48 49 53 56 56 54 51 49 49 50 50 48 47 49 52 53 54 56 57 58 58 59 59 59 58 57 53 49 48 48 50 53 55 54 53 51 51 51 50 50 53 55 57 58 59 58 58 58 57 55 54 54 55 56 58 59 60 61 62 63 65 66 67 68 69 70 71 72 73 73 72 71 71 71 71 71 72 74 75 74
48 49 50 51 51 50 51 55 57 56 53 50 48 48 48 48 46 45 48 49 50 51 53 54 56 58 60 59 58 57 55 52 50 50 51 52 54 56 55 54 53 54 54 53 53 54 57 58 58 59 59 58 57 56 54 55 55 56 58 60 61 62 63 64 65 67 68 69 70 71 72 73 73 74 73 72 71 70 71 71 71 72 74 74 74
45 47 51 53 53 52 52 54 55 54 53 51 49 48 46 44 43 44 46 46 47 49 51 52 54 57 59 58 57 57 57 55 54 54 54 54 55 56 56 56 57 57 56 56 56 57 58 59 59 59 59 59 57 55 55 56 57 58 60 62 63 64 65 66 68 69 70 71 72 73 74 74 75 75 74 73 71 71 70 71 72 73 74 74 74
41 45 48 49 49 50 51 52 53 53 52 50 48 45 43 41 42 44 45 45 46 47 49 51 53 56 57 56 56 57 59 58 57 56 55 55 56 58 58 59 59 59 59 60 60 59 58 59 59 58 58 57 56 56 57 59 61 62 63 64 65 67 68 70 71 72 72 73 74 75 76 76 76 76 76 74 72 71 71 71 72 73 74 74 74
36 37 40 42 43 46 48 50 51 51 49 47 45 44 42 41 44 46 47 47 47 47 49 51 53 54 55 55 56 57 59 59 59 58 56 56 57 59 61 62 62 61 61 61 59 58 58 58 57 56 56 57 58 60 62 63 63 64 65 66 68 70 72 74 75 75 75 76 77 77 78 78 78 77 76 74 73 71 71 72 73 74 74 75 75
36 36 38 40 41 43 45 46 47 47 46 45 45 45 44 44 46 47 48 49 49 50 51 54 55 55 56 57 58 59 60 60 60 59 57 56 58 61 64 66 65 64 62 61 60 60 59 59 57 56 57 59 61 63 64 64 66 67 68 70 72 75 77 78 78 78 77 78 79 79 79 79 78 77 76 74 73 72 72 73 74 75 75 76 76
36 37 39 40 42 42 43 44 45 45 45 46 46 47 47 48 50 50 50 50 51 51 52 53 54 56 57 58 59 60 60 60 60 59 59 59 60 64 67 67 66 64 63 63 62 61 59 57 56 57 60 61 63 64 66 68 70 72 73 75 77 78 79 80 80 79 79 80 80 79 78 78 77 76 75 73 72 73 74 75 76 76 76 77 77
35 37 40 42 43 44 44 45 46 46 46 47 48 48 48 50 51 52 52 52 53 53 53 54 55 57 58 58 58 59 60 60 61 61 61 61 62 65 66 66 65 64 64 63 62 60 58 58 59 61 64 66 68 70 72 73 75 76 78 79 80 80 81 81 81 80 79 79 78 77 76 76 75 74 73 73 73 74 75 76 77 77 77 78 78
38 40 42 44 45 46 47 48 48 48 49 49 49 49 48 48 49 50 50 52 53 55 57 58 59 61 61 60 60 61 61 62 62 61 61 62 63 64 64 63 62 62 63 64 64 62 61 61 63 65 68 71 73 74 76 77 78 79 81 81 81 81 81 80 80 78 77 75 75 75 75 74 73 72 73 73 74 76 77 78 78 78 78 78 79
42 43 45 46 47 48 50 51 52 53 53 52 52 50 50 49 49 49 49 50 52 54 57 58 59 60 59 59 60 62 62 63 62 62 62 62 62 62 62 62 62 62 62 63 65 66 66 66 67 69 72 74 75 77 77 78 80 81 81 81 80 80 79 78 77 76 75 74 74 73 72 71 71 72 73 74 76 77 78 79 79 79 79 79 80
44 44 45 47 48 49 50 51 52 52 51 51 50 50 50 50 49 49 49 50 50 51 52 53 53 54 54 55 58 61 63 64 63 62 61 61 61 61 62 63 64 64 64 64 65 67 68 70 71 73 75 75 76 77 78 79 80 80 79 79 78 77 77 76 75 74 74 73 72 71 71 71 72 74 75 77 78 78 79 79 80 80 80 81 81
43 44 46 47 48 47 45 45 46 47 47 47 46 47 47 47 47 47 48 48 49 49 49 49 50 51 52 54 57 60 62 63 62 60 60 61 61 62 65 66 67 67 67 68 69 70 72 73 75 76 77 77 77 77 78 78 78 77 77 77 77 76 76 75 75 74 73 71 71 71 72 74 75 77 78 79 79 80 80 80 81 82 82 83 84
42 44 47 48 48 47 46 44 43 44 44 43 41 41 42 43 44 46 46 47 48 48 48 48 49 50 52 54 57 59 60 61 60 60 61 61 61 63 65 67 68 69 70 71 72 73 74 75 76 77 77 77 77 77 77 77 76 76 76 76 76 76 76 75 74 73 72 71 72 74 75 77 79 80 81 81 81 81 82 82 83 84 84 85 86
42 43 44 45 45 46 47 44 42 41 41 39 37 37 38 40 42 43 44 44 45 46 46 48 50 52 54 55 56 57 58 58 59 60 60 61 62 64 66 67 69 70 72 73 73 74 74 76 77 78 78 78 78 78 77 77 77 76 76 76 76 76 75 74 73 73 73 74 76 77 79 81 82 82 82 82 83 83 84 85 85 86 87 87 87
38 39 38 39 39 40 41 40 40 40 40 39 38 38 38 39 41 42 43 44 46 47 49 51 53 54 55 55 54 54 55 55 57 58 60 62 63 65 67 69 70 71 71 72 73 74 76 77 78 79 79 79 79 79 78 77 77 76 76 76 76 75 75 75 75 75 77 78 80 82 84 84 84 84 84 85 85 86 87 88 88 88 89 89 90
37 37 37 36 36 37 37 38 39 41 43 44 44 44 44 43 43 44 46 47 48 49 50 51 52 52 52 52 52 53 53 54 55 57 59 61 64 66 67 69 70 71 72 73 75 76 78 79 80 81 82 82 81 80 79 79 78 77 76 76 76 76 77 77 78 80 82 84 85 86 86 86 86 87 87 88 89 89 90 90 90 90 91 92 93
35 35 36 36 36 37 38 39 41 43 44 45 44 42 41 40 39 40 41 42 43 44 46 47 48 49 49 50 52 53 54 55 57 59 62 64 66 68 70 71 72 73 74 75 77 78 79 81 82 82 82 81 80 79 79 78 77 77 77 78 79 80 81 82 83 85 87 88 88 88 88 88 88 89 90 90 91 92 92 92 92 93 94 95 96
31 32 33 34 35 36 37 38 39 39 38 36 35 34 34 34 35 36 37 38 39 41 42 43 45 46 47 49 50 52 53 55 57 60 63 65 67 68 70 70 71 72 74 75 77 79 80 81 81 81 80 79 78 78 77 77 78 79 80 82 83 83 85 86 88 89 90 90 90 90 90 91 91 92 92 93 94 94 95 95 95 96 97 98 99
25 25 27 28 29 30 31 31 32 32 32 32 32 32 32 33 35 36 37 38 38 39 40 42 43 45 46 48 50 52 54 56 58 61 63 65 67 69 70 70 71 73 75 76 78 79 79 79 79 78 78 77 77 77 78 79 80 82 83 84 86 88 89 90 91 92 92 93 93 93 93 94 94 95 96 96 97 97 98 98 99 99 100 101 101
20 20 21 22 23 24 25 26 27 29 29 30 31 31 32 33 35 37 39 39 39 39 40 42 43 45 47 48 51 53 56 59 61 63 65 67 69 71 72 73 74 75 76 76 76 76 76 76 76 75 75 75 76 78 79 81 83 85 87 89 91 92 93 93 94 95 95 96 96 96 97 97 98 99 99 100 100 100 101 101 101 102 102 102 101
20 21 21 22 23 23 24 24 25 25 26 27 28 29 30 32 34 35 37 38 39 40 42 43 45 47 49 51 54 56 58 61 63 65 66 68 69 70 71 72 72 72 72 72 72 72 72 73 73 74 75 77 79 82 84 86 89 91 92 93 94 95 96 97 98 98 98 98 99 100 101 101 102 102 102 103 103 103 103 103 103 103 103 101 98
18 19 20 21 21 22 22 23 24 25 26 27 28 29 31 33 35 36 38 40 41 43 45 47 49 51 53 55 57 59 60 61 62 63 63 64 64 65 65 66 66 67 68 68 69 70 71 73 76 78 80 83 86 88 90 92 93 94 95 96 97 98 99 100 100 100 101 102 103 103 104 104 105 105 105 105 105 105 105 105 104 102 100 96 92
17 18 19 20 20 21 22 23 24 25 26 27 28 29 29 31 32 33 34 35 36 37 39 41 43 45 47 49 51 52 53 54 56 57 58 59 60 61 62 64 65 66 68 70 72 75 77 80 83 85 87 89 91 93 94 95 96 97 98 99 100 100 101 101 102 103 104 105 105 106 106 106 107 107 107 107 107 107 106 104 101 97 94 91 88
Wind_Direction
215 216 217 219 221 223 224 225 227 228 229 230 231 231 230 229 228 228 230 230 228 224 222 222 223 222 222 223 225 226 229 230 230 231 233 233 234 240 248 255 260 263 261 257 256 257 257 257 257 258 259 259 259 259 259 258 259 260 261 262 263 264 265 267 269 270 270 270 268 266 265 264 265 265 266 266 266 267 268 269 271 274 278 280 281
215 217 218 220 222 225 226 226 227 229 229 230 230 230 229 228 229 230 231 230 226 222 220 220 221 222 223 224 226 227 228 229 228 229 231 232 232 236 244 251 256 260 261 258 255 255 256 257 257 257 258 258 259 260 260 260 261 261 262 262 262 262 263 265 265 266 266 267 266 266 266 266 264 263 264 265 265 265 265 267 270 273 275 276 277
217 217 219 220 223 225 226 227 228 229 230 230 230 230 229 229 230 231 230 228 224 221 218 218 219 222 223 224 226 229 229 230 229 228 229 230 230 232 239 246 251 255 259 260 259 257 256 257 258 258 258 258 258 259 260 261 262 262 262 262 262 262 262 261 261 261 262 262 263 265 266 266 265 263 262 262 261 261 262 264 267 269 271 272 273
220 219 219 220 222 223 224 225 227 229 230 230 231 230 229 229 230 230 229 226 222 219 217 218 220 222 224 225 227 229 231 231 230 228 228 229 229 230 235 241 244 249 255 259 261 259 257 257 257 258 258 258 258 259 260 261 261 261 261 261 261 261 260 259 258 257 257 258 259 260 262 264 264 262 260 259 258 258 261 265 268 270 271 272 273
222 220 221 222 223 222 222 223 225 227 229 230 230 229 229 229 230 228 226 224 220 218 218 219 221 224 225 227 228 229 230 230 230 229 229 230 230 230 232 236 240 244 249 254 257 258 257 257 257 258 259 259 260 260 260 260 260 260 260 260 260 259 259 258 257 257 257 258 259 260 261 262 261 259 258 257 256 257 261 264 266 268 269 270 270
224 222 223 225 224 222 222 223 223 225 228 229 228 228 228 228 229 226 224 222 219 218 220 221 223 224 225 226 227 228 229 229 230 230 231 231 231 231 232 234 237 241 244 248 253 256 257 257 257 259 259 260 260 260 260 260 260 259 258 258 258 258 259 258 259 259 260 261 261 261 261 260 258 256 254 254 255 257 260 263 264 266 267 268 268
226 226 226 226 223 222 223 223 223 224 226 227 226 226 227 227 227 224 222 222 221 220 221 223 223 224 225 226 227 227 228 229 231 232 233 234 234 233 234 234 236 239 241 244 247 252 255 256 257 258 259 260 260 260 260 260 260 260 259 258 258 257 258 258 259 259 259 260 259 258 257 255 253 252 251 252 253 255 259 262 265 267 269 270 271
223 227 228 225 222 222 223 223 223 223 223 224 225 225 226 225 224 223 222 222 223 223 223 224 224 225 226 227 228 229 229 230 233 234 235 237 237 236 236 236 237 238 239 242 244 247 252 255 257 258 258 259 260 260 261 261 260 260 258 258 257 256 256 256 255 255 254 254 254 253 252 251 251 251 252 253 255 257 260 264 266 269 271 271 272
218 224 226 226 223 223 224 223 224 223 223 224 224 224 225 224 224 225 225 225 224 225 225 226 226 227 227 229 230 231 231 231 233 235 236 239 240 239 238 238 239 239 239 241 242 244 247 251 254 257 258 260 260 261 261 260 259 257 256 254 253 252 252 252 252 251 251 251 251 252 252 254 255 257 258 259 261 263 264 266 267 269 271 272 273
219 222 223 224 224 223 223 223 223 224 224 224 223 223 224 225 225 227 228 229 229 229 229 229 230 230 230 231 231 231 231 231 233 235 237 239 240 241 241 240 241 241 241 241 242 243 244 246 250 254 257 258 259 259 259 258 256 254 252 251 250 249 249 249 249 250 250 251 252 254 256 258 259 260 261 262 263 265 266 268 270 272 274 276 278
220 224 223 222 222 221 220 221 221 222 223 221 220 222 224 225 226 227 228 231 232 233 233 233 233 234 233 233 233 231 231 231 232 234 236 238 240 242 243 243 243 243 242 242 242 242 242 243 246 250 254 256 257 257 256 255 253 251 250 249 248 248 248 248 248 249 250 252 254 256 258 259 260 261 262 263 265 267 270 273 276 278 279 281 282
217 224 225 223 220 218 217 217 219 219 219 219 219 222 225 225 226 227 228 230 232 234 235 236 235 236 236 235 234 232 231 231 231 233 234 237 240 242 244 245 244 244 244 244 243 243 243 244 244 246 249 252 253 254 254 253 251 250 249 248 247 247 248 248 249 251 253 255 257 259 261 262 263 264 265 267 269 272 275 278 280 282 282 283 284
214 219 225 225 220 217 216 215 216 217 217 218 219 221 224 226 227 228 230 231 233 234 235 236 237 237 237 237 236 233 232 232 232 233 234 236 238 241 243 245 246 246 246 245 245 244 244 245 245 245 245 247 249 251 251 251 251 250 249 249 248 248 249 250 252 254 256 259 261 262 264 266 268 268 269 271 273 275 278 280 282 283 284 285 285
218 215 219 223 220 217 216 214 214 215 215 217 219 221 223 225 226 228 230 231 232 233 234 236 237 238 238 237 237 235 233 233 234 234 235 236 237 239 242 244 246 247 247 247 248 248 248 248 248 247 245 245 246 247 249 250 250 250 250 249 249 250 251 253 254 257 260 263 265 266 267 270 272 273 274 274 276 277 279 282 283 284 285 286 287
226 216 215 219 219 216 215 214 213 213 214 217 219 220 223 225 226 227 228 229 231 232 234 236 237 238 237 237 237 236 235 235 235 236 237 237 237 238 240 242 245 247 248 249 250 251 252 252 252 250 248 247 246 246 247 249 250 250 250 250 250 251 253 255 256 259 263 267 269 270 272 273 275 277 277 278 279 280 282 284 285 285 286 288 289
230 221 215 218 219 215 213 214 214 213 215 217 220 222 223 224 225 225 226 227 228 229 231 233 235 236 236 237 238 238 237 236 237 238 239 239 239 239 239 241 243 246 249 250 251 252 254 255 255 254 253 251 250 249 250 250 250 251 251 251 252 253 255 257 259 263 267 270 272 273 275 276 277 278 280 282 283 284 285 286 287 287 288 288 289
231 224 218 220 222 216 213 215 215 216 217 219 222 224 226 227 226 226 227 227 227 228 229 231 234 235 236 236 237 238 238 237 237 237 239 242 242 241 241 241 242 244 247 250 251 253 254 255 256 257 257 256 255 255 255 255 254 253 253 253 255 257 258 260 263 266 269 270 272 275 276 277 279 280 282 284 286 287 287 288 289 288 289 289 290
230 225 221 223 225 219 216 216 217 218 220 222 224 227 228 230 229 229 230 230 228 228 229 230 233 234 235 236 237 238 238 238 238 238 239 243 245 245 245 244 243 244 245 247 250 253 255 256 257 258 259 259 260 261 261 261 261 260 259 259 260 260 261 263 264 267 269 271 274 276 278 279 281 282 284 285 286 287 288 288 289 289 290 290 291
228 224 220 222 223 220 218 219 220 221 221 223 226 228 230 232 232 231 232 232 231 230 229 231 233 234 234 235 236 237 238 238 239 239 240 244 247 249 249 248 248 247 247 247 249 251 255 257 259 260 261 262 263 265 266 267 267 266 265 264 264 264 264 265 267 269 271 274 276 277 279 280 282 283 284 285 286 287 288 289 290 290 291 292 292
225 219 216 217 218 217 217 220 224 226 227 227 227 228 229 231 233 232 232 233 232 232 231 232 233 234 235 236 237 238 239 240 241 241 241 244 247 250 251 252 252 252 251 251 251 252 254 257 260 262 263 264 266 267 268 270 271 271 271 270 269 268 269 269 270 272 273 275 276 278 280 281 283 284 285 285 286 287 289 290 290 291 292 293 295
220 216 215 216 215 213 213 217 221 225 229 231 231 231 232 233 233 233 232 232 233 233 233 232 233 233 235 236 237 238 240 240 241 242 242 244 247 250 253 254 254 255 254 254 254 255 256 258 259 261 262 264 265 266 268 270 271 273 274 273 273 273 272 272 272 273 274 276 278 280 281 283 283 284 285 286 287 289 290 290 291 292 294 296 297
219 215 214 213 212 211 210 211 214 218 224 229 231 234 236 238 238 235 233 232 233 233 233 233 233 234 235 236 236 237 239 240 241 242 243 244 247 250 253 255 256 257 257 258 259 259 259 259 259 259 260 262 264 266 268 270 271 273 274 274 274 274 274 274 274 275 277 278 280 282 283 284 285 285 286 288 289 290 291 292 293 295 296 297 298
222 219 216 213 211 210 208 207 209 214 221 227 231 234 239 243 245 242 237 234 234 234 235 235 235 235 236 236 236 236 238 240 241 242 242 244 246 248 251 255 258 260 263 264 265 265 264 263 262 261 261 262 264 266 268 269 271 273 275 276 276 276 276 276 277 278 280 281 282 283 284 285 286 287 289 290 291 293 294 295 296 297 298 299 299
224 223 220 217 214 212 209 208 209 213 220 226 230 235 240 244 249 249 243 238 237 237 237 236 236 237 238 238 236 236 237 239 241 243 243 245 247 247 250 253 257 261 264 266 268 270 270 270 269 267 265 265 266 266 268 270 272 274 275 276 277 277 276 277 278 279 281 283 284 284 285 286 288 289 291 293 294 296 296 297 298 298 298 299 299
227 225 222 220 219 217 214 213 213 214 219 225 230 236 242 244 247 249 247 244 241 240 239 239 238 239 240 240 238 237 237 239 240 243 245 246 248 249 249 250 253 257 262 266 270 272 272 270 269 267 267 267 267 268 269 271 272 273 274 275 276 277 278 279 280 281 283 284 285 286 286 288 289 291 293 295 296 297 298 298 299 299 299 299 300
227 226 221 220 221 220 218 218 219 218 217 221 229 238 243 246 246 247 249 251 248 244 242 241 239 240 241 241 239 238 238 238 240 242 245 247 249 251 251 250 251 254 261 267 269 269 268 267 265 264 264 266 267 268 269 270 271 273 274 276 277 278 280 281 282 283 284 285 285 286 287 288 290 292 294 295 297 298 299 299 299 299 299 300 302
224 225 223 224 225 223 223 225 225 221 217 218 224 232 239 243 244 245 249 254 251 245 243 240 238 240 242 241 240 240 239 239 240 242 245 248 250 252 253 253 252 254 262 268 267 264 264 264 262 263 264 265 267 268 270 272 273 274 276 277 278 279 281 282 283 284 285 285 286 287 288 290 291 292 293 294 297 298 299 299 299 299 300 301 302
225 225 225 226 227 228 229 229 226 222 221 221 223 228 234 239 242 245 251 255 251 244 241 239 237 239 242 243 242 243 242 242 243 245 248 250 252 253 255 255 255 257 264 268 265 259 259 260 262 264 266 266 268 270 272 274 275 276 277 278 279 280 281 282 283 284 285 286 287 288 289 291 292 292 292 294 296 299 299 299 299 299 300 301 302
229 229 228 227 227 229 230 227 225 226 227 228 227 228 232 238 243 248 253 256 251 243 239 238 238 240 244 245 246 247 248 248 249 251 252 253 253 254 256 256 257 258 262 262 258 255 257 261 264 266 268 269 271 274 275 276 276 277 278 278 279 280 282 283 284 285 286 287 288 289 290 291 291 292 293 294 296 298 299 299 299 299 301 301 301
230 232 232 230 229 230 229 227 227 230 234 235 232 230 231 236 243 248 250 249 245 241 239 240 241 244 246 248 249 250 250 250 250 251 252 253 253 254 255 255 256 257 257 255 252 254 260 265 268 269 270 272 273 275 275 276 277 277 278 279 280 282 283 284 285 285 286 287 288 289 289 290 291 292 293 294 296 297 298 298 298 299 300 300 300
232 235 237 235 232 231 230 230 231 235 237 237 234 230 232 236 241 242 241 238 237 239 241 243 245 246 247 248 249 249 247 247 247 247 249 251 252 253 253 252 252 254 254 253 254 260 266 269 269 270 271 273 274 276 277 277 277 277 278 279 281 282 283 283 284 285 285 287 287 288 288 290 291 292 293 294 295 296 296 297 297 298 298 299 299
238 239 238 233 227 226 227 229 231 233 234 234 232 230 232 236 237 236 235 235 237 241 243 246 247 247 247 246 246 246 246 245 246 247 248 249 250 251 251 251 252 253 253 254 259 265 269 270 270 271 272 273 274 275 275 275 275 275 276 278 279 280 281 282 283 284 285 285 286 287 288 290 291 292 293 293 294 294 295 295 296 297 297 298 299
235 230 225 222 222 226 230 232 233 232 231 231 231 229 230 233 235 236 236 237 240 242 243 246 247 248 247 246 244 245 246 245 245 246 246 247 248 249 249 250 252 252 252 254 260 266 269 270 270 270 270 270 270 271 273 274 275 276 277 278 278 278 279 280 281 282 283 284 285 286 288 289 290 291 292 292 292 293 294 295 295 296 296 297 298
231 221 218 222 226 230 233 234 233 232 231 231 230 227 226 229 233 236 236 237 239 240 241 243 243 244 244 244 244 245 246 245 244 246 247 247 248 248 249 250 252 252 254 257 262 267 270 271 271 270 270 270 270 272 274 275 276 276 277 277 276 276 277 278 279 280 282 283 285 286 287 288 289 290 290 291 291 292 293 294 295 296 296 297 298
230 224 224 227 229 230 232 233 233 233 233 231 228 226 226 228 230 232 234 235 235 237 240 242 243 243 244 244 245 247 248 247 247 247 247 247 248 249 251 252 254 256 258 261 264 268 270 270 268 269 270 270 270 271 271 272 273 274 275 275 275 276 277 277 278 280 281 283 284 286 287 288 289 289 289 290 291 292 293 294 295 295 296 297 299
227 227 227 228 228 230 232 234 235 237 236 233 229 229 230 231 231 232 233 234 234 236 238 241 242 242 243 243 245 247 249 249 250 249 249 249 249 251 252 254 257 259 260 261 263 267 267 265 264 265 266 266 267 268 269 271 272 273 274 275 276 276 277 278 279 280 281 283 284 286 287 288 288 288 289 290 291 293 294 294 295 296 296 298 299
227 229 230 231 231 232 234 235 237 238 238 235 233 233 234 235 235 235 236 236 236 236 238 240 242 244 245 246 246 247 248 249 250 250 250 250 251 252 255 257 259 260 261 261 262 263 263 263 264 265 265 265 266 268 269 271 272 273 274 275 276 277 278 278 279 280 281 283 285 286 287 287 287 288 290 291 292 294 294 295 295 296 297 298 299
229 231 232 234 236 237 237 238 238 239 239 238 237 237 237 238 237 237 237 238 239 239 241 242 245 247 249 249 249 248 248 248 249 249 249 249 250 253 257 259 260 260 260 260 260 261 262 263 264 265 265 266 267 269 271 272 273 274 275 276 277 278 278 278 279 281 282 284 285 286 286 287 289 290 292 293 294 294 295 295 296 296 297 299 300
232 234 235 238 240 240 240 239 238 238 237 236 235 236 236 236 237 237 239 241 243 244 245 247 250 251 252 251 250 248 248 248 248 248 249 249 250 253 256 259 260 260 260 260 260 261 262 262 263 264 265 266 268 270 271 272 273 274 276 277 278 278 278 279 280 282 283 285 285 286 288 290 291 292 293 294 295 295 295 296 296 297 298 299 301
234 237 239 240 240 239 237 236 235 235 234 234 235 236 237 239 240 242 243 244 245 246 248 251 253 254 254 253 251 249 248 247 246 247 249 250 251 251 254 257 259 261 262 262 263 263 263 263 264 265 266 267 269 270 270 271 273 274 276 277 277 278 279 281 282 283 284 285 286 288 290 292 293 293 294 295 295 295 295 296 297 298 299 300 301
235 237 239 240 239 236 233 233 234 235 235 236 239 241 243 245 246 246 247 247 247 248 250 251 253 254 254 254 253 250 249 247 245 246 248 251 253 253 254 256 258 259 260 261 263 264 265 266 266 267 268 268 269 269 270 271 273 275 276 277 278 279 281 282 283 284 285 286 288 290 291 292 293 294 294 294 295 295 296 297 298 299 299 300 301
232 234 235 236 238 237 234 233 235 237 238 239 241 243 246 247 247 247 247 247 247 248 250 251 252 254 254 255 254 253 251 249 247 247 249 252 254 254 255 256 257 259 260 261 263 264 265 266 266 267 267 267 268 269 270 272 274 276 277 278 280 281 282 283 284 285 286 287 289 290 292 292 293 293 294 294 295 296 297 297 298 299 299 300 301
231 234 235 235 237 238 238 238 241 242 243 243 245 248 250 250 249 247 247 248 248 250 251 253 254 255 255 255 255 253 252 251 249 249 250 252 253 254 255 256 258 260 261 262 263 263 264 264 265 266 267 267 268 269 271 274 276 277 278 279 280 282 283 284 285 286 287 288 290 291 292 292 293 293 294 294 295 296 296 297 298 298 299 300 301
233 238 240 240 240 241 242 244 246 247 245 244 245 248 251 252 252 250 250 251 252 252 253 254 255 255 255 254 254 253 253 253 252 252 252 252 253 254 254 255 257 258 259 260 262 263 264 265 266 267 267 268 269 271 273 275 276 277 278 280 282 283 284 285 285 286 288 289 290 291 291 292 292 293 294 294 295 295 296 297 297 298 299 300 301
234 238 241 242 242 242 243 244 246 248 247 246 247 249 252 253 254 254 254 255 255 256 256 256 256 256 255 254 254 254 254 254 253 253 252 252 253 254 254 256 257 259 260 262 263 264 265 266 267 267 269 270 272 273 274 275 276 278 280 281 283 283 284 285 286 287 288 289 290 290 291 291 292 292 293 294 294 295 296 297 297 298 299 300 300
238 241 242 244 245 246 246 246 247 248 249 249 249 250 252 253 255 256 256 255 255 255 254 254 255 255 255 255 254 255 254 254 254 254 254 255 255 256 257 258 260 261 262 263 264 265 266 267 268 269 270 272 273 274 275 276 278 279 281 282 283 284 285 286 287 288 288 289 289 289 290 291 291 292 292 293 294 295 296 297 297 298 299 299 299
239 241 243 245 246 247 248 249 248 248 248 248 248 248 249 250 251 251 252 251 251 251 251 252 253 253 254 254 254 254 253 253 253 253 253 254 255 256 258 259 261 262 262 264 265 266 267 268 270 271 272 273 274 275 276 278 279 280 281 283 284 285 286 287 287 287 287 288 288 289 289 290 291 291 292 293 294 294 295 296 297 297 298 298 297
234 235 238 241 244 246 249 250 251 252 252 251 250 249 248 246 245 244 245 245 246 247 249 251 251 252 252 252 252 253 253 253 253 253 254 255 256 257 258 260 261 262 264 265 267 269 271 272 274 275 276 277 277 277 278 279 280 281 283 284 285 285 285 285 286 286 287 287 288 288 289 289 290 291 292 293 293 294 295 295 296 296 296 296 296
237 237 239 241 243 245 247 248 249 250 249 249 248 248 247 248 248 249 250 250 251 252 252 253 253 253 254 254 254 254 254 254 255 255 255 256 257 258 260 262 264 267 269 271 273 275 276 277 277 277 277 277 278 278 279 280 282 282 283 283 284 284 284 285 285 286 286 287 287 288 288 289 290 291 291 292 293 294 294 294 294 295 294 294 294
241 242 243 244 244 244 244 244 244 245 245 245 245 246 246 248 249 251 252 253 254 254 255 255 255 255 255 255 256 256 256 257 257 258 259 261 263 265 268 270 273 274 276 276 277 277 277 277 277 277 277 278 279 280 281 281 282 282 282 283 283 284 284 285 285 285 285 286 286 287 288 289 289 290 291 292 292 292 293 293 293 293 292 292 291
249 249 250 250 250 249 249 248 248 248 248 248 249 250 251 253 254 255 256 258 259 261 262 262 263 263 263 263 264 264 265 266 267 268 270 271 272 273 274 275 276 276 277 277 277 277 277 277 278 279 279 280 280 281 281 281 281 282 282 283 283 283 284 284 284 284 285 285 286 286 287 288 289 290 290 291 291 291 291 291 291 290 290 289 288
Height
5564 5568 5572 5576 5579 5582 5584 5587 5589 5592 5594 5597 5599 5602 5604 5607 5609 5611 5612 5613 5616 5618 5620 5622 5624 5626 5628 5629 5631 5632 5634 5635 5637 5639 5640 5642 5643 5644 5645 5647 5648 5649 5650 5652 5652 5653 5653 5653 5654 5654 5655 5655 5656 5657 5658 5659 5660 5660 5661 5662 5662 5662 5662 5663 5665 5666 5667 5668 5669 5669 5670 5671 5671 5672 5673 5674 5675 5676 5677 5677 5678 5678 5679 5679 5680
5558 5562 5566 5569 5572 5575 5577 5580 5583 5585 5588 5590 5593 5595 5598 5601 5603 5605 5607 5608 5611 5613 5614 5616 5618 5620 5622 5624 5625 5627 5629 5630 5632 5634 5635 5636 5638 5639 5640 5641 5643 5644 5645 5647 5648 5648 5649 5649 5649 5650 5650 5651 5651 5652 5653 5654 5655 5656 5657 5657 5658 5658 5658 5659 5660 5661 5663 5664 5664 5664 5665 5666 5667 5668 5670 5671 5672 5673 5673 5674 5674 5675 5675 5676 5676
5550 5553 5557 5561 5564 5567 5570 5573 5576 5579 5582 5584 5587 5590 5592 5595 5597 5599 5601 5603 5605 5608 5609 5610 5612 5614 5616 5618 5620 5622 5624 5625 5627 5628 5630 5631 5632 5633 5635 5636 5638 5639 5640 5641 5642 5643 5644 5645 5645 5646 5646 5647 5647 5648 5648 5649 5650 5651 5652 5653 5653 5654 5654 5654 5655 5656 5658 5659 5660 5660 5660 5661 5663 5665 5666 5667 5668 5669 5669 5670 5670 5670 5671 5671 5672
5543 5546 5549 5552 5556 5558 5562 5565 5568 5572 5576 5578 5581 5584 5587 5589 5592 5594 5595 5597 5600 5602 5604 5605 5606 5609 5611 5613 5615 5617 5619 5621 5622 5623 5625 5626 5627 5628 5629 5631 5632 5634 5635 5636 5638 5639 5640 5640 5641 5641 5642 5642 5643 5643 5644 5645 5646 5647 5647 5648 5649 5649 5650 5650 5651 5651 5653 5654 5655 5656 5656 5657 5659 5660 5661 5662 5663 5664 5664 5664 5664 5665 5665 5666 5666
5535 5538 5541 5544 5547 5551 5554 5558 5561 5565 5569 5573 5576 5579 5581 5584 5586 5588 5590 5592 5595 5597 5598 5599 5601 5603 5606 5608 5610 5612 5613 5616 5617 5618 5620 5621 5622 5623 5625 5626 5627 5628 5630 5631 5633 5634 5635 5635 5636 5637 5637 5638 5638 5639 5640 5640 5641 5642 5643 5644 5644 5645 5646 5646 5647 5647 5648 5649 5650 5651 5652 5653 5654 5655 5656 5657 5658 5659 5659 5659 5659 5660 5660 5660 5661
5528 5530 5533 5537 5541 5544 5547 5551 5555 5559 5563 5567 5570 5573 5576 5578 5580 5583 5585 5587 5590 5591 5592 5594 5596 5598 5601 5602 5604 5606 5608 5610 5612 5613 5614 5616 5617 5619 5620 5621 5622 5623 5624 5626 5627 5628 5629 5630 5631 5632 5633 5633 5634 5634 5635 5636 5636 5637 5638 5639 5640 5640 5641 5642 5642 5643 5643 5643 5644 5645 5646 5648 5649 5650 5651 5652 5653 5654 5654 5654 5654 5655 5655 5655 5655
5519 5522 5526 5530 5534 5537 5541 5544 5548 5553 5556 5560 5563 5566 5570 5573 5575 5577 5580 5582 5584 5585 5587 5589 5591 5593 5595 5597 5599 5600 5603 5604 5606 5608 5609 5611 5613 5614 5615 5616 5617 5618 5619 5620 5621 5623 5624 5625 5626 5627 5628 5628 5629 5630 5630 5631 5632 5633 5634 5634 5635 5636 5636 5636 5637 5637 5637 5637 5638 5639 5641 5642 5644 5645 5646 5647 5648 5649 5649 5648 5648 5648 5649 5649 5649
5509 5514 5517 5521 5526 5530 5534 5537 5541 5545 5549 5552 5556 5559 5563 5566 5569 5571 5573 5576 5578 5580 5582 5583 5585 5587 5589 5591 5593 5595 5597 5599 5600 5602 5604 5606 5608 5610 5611 5612 5612 5613 5614 5615 5616 5617 5618 5619 5621 5622 5623 5624 5625 5625 5626 5626 5627 5628 5628 5629 5630 5630 5630 5630 5630 5630 5630 5631 5632 5633 5636 5637 5639 5640 5641 5642 5643 5643 5644 5643 5642 5642 5642 5643 5642
5499 5504 5509 5514 5519 5523 5527 5530 5534 5537 5541 5545 5549 5552 5556 5559 5562 5565 5567 5570 5572 5574 5576 5577 5579 5581 5583 5585 5587 5589 5591 5593 5595 5598 5599 5601 5603 5604 5606 5607 5607 5608 5609 5610 5611 5611 5613 5614 5615 5616 5618 5619 5620 5620 5621 5622 5622 5622 5623 5623 5624 5624 5624 5624 5625 5625 5625 5626 5627 5628 5630 5632 5633 5635 5636 5636 5637 5637 5637 5637 5635 5634 5634 5634 5634
5488 5495 5501 5507 5512 5516 5519 5522 5526 5530 5534 5538 5542 5546 5549 5552 5555 5558 5561 5564 5566 5568 5569 5571 5573 5575 5577 5579 5581 5584 5586 5588 5590 5592 5594 5595 5597 5599 5600 5602 5602 5603 5604 5604 5605 5606 5607 5608 5609 5610 5612 5613 5614 5615 5616 5616 5617 5617 5617 5617 5618 5618 5619 5619 5619 5620 5620 5621 5621 5623 5624 5625 5627 5628 5629 5629 5630 5629 5629 5628 5627 5627 5626 5626 5624
5480 5486 5492 5498 5503 5507 5511 5515 5520 5524 5528 5532 5536 5539 5542 5545 5548 5551 5554 5557 5559 5561 5563 5565 5567 5569 5571 5574 5575 5578 5580 5582 5584 5586 5588 5589 5591 5593 5595 5596 5598 5598 5599 5600 5600 5601 5602 5602 5603 5604 5606 5607 5608 5609 5610 5610 5611 5611 5612 5612 5613 5613 5613 5614 5614 5614 5615 5615 5616 5616 5617 5618 5620 5621 5621 5621 5622 5622 5621 5620 5619 5618 5618 5617 5614
5472 5477 5483 5489 5494 5499 5503 5508 5513 5517 5521 5525 5529 5532 5535 5538 5541 5544 5547 5550 5553 5555 5557 5559 5561 5563 5565 5568 5570 5572 5574 5576 5578 5580 5581 5583 5585 5587 5589 5591 5592 5594 5594 5595 5595 5596 5596 5597 5598 5598 5599 5600 5602 5602 5604 5604 5605 5606 5606 5607 5607 5607 5608 5608 5608 5609 5609 5609 5610 5610 5610 5610 5611 5613 5613 5613 5614 5614 5614 5613 5611 5610 5608 5607 5605
5464 5468 5473 5478 5485 5490 5495 5500 5505 5510 5514 5519 5522 5525 5528 5531 5535 5538 5541 5544 5546 5549 5551 5553 5555 5557 5559 5562 5564 5566 5568 5569 5571 5573 5575 5577 5579 5581 5583 5584 5586 5588 5589 5589 5589 5590 5591 5591 5592 5592 5593 5594 5595 5596 5597 5598 5599 5600 5600 5601 5601 5601 5602 5602 5602 5603 5603 5603 5603 5604 5604 5603 5603 5604 5605 5605 5606 5606 5606 5605 5602 5601 5599 5597 5594
5457 5460 5464 5468 5475 5482 5487 5492 5498 5503 5507 5511 5515 5518 5522 5525 5528 5532 5534 5537 5540 5542 5544 5546 5548 5551 5554 5556 5558 5560 5561 5563 5565 5567 5569 5571 5572 5574 5576 5578 5579 5581 5582 5583 5584 5585 5585 5586 5586 5587 5587 5587 5588 5588 5590 5591 5592 5593 5593 5594 5594 5595 5595 5595 5596 5596 5596 5596 5596 5597 5597 5597 5596 5596 5596 5596 5597 5597 5597 5596 5593 5591 5590 5587 5583
5451 5454 5457 5460 5465 5473 5479 5485 5490 5495 5499 5503 5507 5511 5514 5518 5521 5524 5527 5530 5533 5536 5538 5540 5542 5544 5547 5549 5551 5553 5555 5556 5558 5560 5562 5564 5565 5567 5569 5570 5572 5574 5575 5577 5578 5579 5580 5580 5581 5581 5581 5581 5581 5581 5582 5583 5584 5585 5586 5587 5587 5588 5588 5588 5589 5589 5589 5589 5589 5589 5590 5590 5589 5588 5587 5587 5587 5587 5587 5586 5584 5582 5581 5578 5574
5447 5449 5452 5455 5459 5465 5472 5478 5483 5487 5491 5495 5499 5503 5507 5510 5513 5516 5520 5523 5525 5528 5530 5532 5534 5537 5539 5542 5544 5546 5548 5550 5552 5553 5555 5557 5558 5559 5561 5563 5565 5567 5569 5571 5572 5573 5574 5574 5575 5575 5575 5575 5575 5575 5576 5577 5578 5578 5579 5580 5580 5580 5581 5581 5581 5582 5582 5582 5581 5581 5581 5581 5581 5580 5579 5578 5577 5577 5577 5575 5573 5572 5571 5569 5566
5442 5446 5449 5452 5456 5461 5465 5470 5475 5479 5483 5488 5492 5497 5500 5503 5506 5509 5512 5514 5517 5520 5522 5524 5527 5530 5532 5535 5537 5539 5541 5543 5544 5546 5548 5550 5551 5552 5554 5556 5558 5560 5562 5563 5565 5566 5567 5568 5568 5569 5569 5570 5570 5570 5570 5571 5572 5572 5572 5573 5573 5574 5574 5574 5574 5575 5575 5574 5573 5573 5572 5572 5572 5572 5570 5569 5567 5567 5566 5565 5563 5561 5560 5559 5557
5437 5441 5445 5448 5452 5456 5459 5462 5467 5471 5476 5481 5486 5490 5493 5496 5500 5503 5505 5508 5510 5513 5515 5517 5519 5522 5525 5527 5529 5531 5533 5535 5537 5539 5540 5542 5544 5546 5548 5549 5550 5552 5554 5556 5558 5559 5560 5561 5562 5563 5563 5563 5563 5564 5565 5565 5566 5566 5566 5566 5567 5567 5567 5567 5567 5567 5567 5565 5565 5564 5563 5563 5563 5562 5561 5560 5557 5556 5555 5553 5552 5551 5550 5548 5546
5430 5435 5439 5442 5445 5449 5452 5456 5460 5465 5470 5474 5478 5482 5486 5489 5493 5496 5499 5501 5504 5505 5507 5510 5512 5514 5517 5519 5521 5523 5525 5527 5529 5531 5533 5535 5538 5539 5541 5542 5543 5545 5546 5548 5550 5552 5553 5554 5555 5556 5556 5556 5557 5557 5558 5558 5559 5559 5559 5560 5560 5560 5559 5559 5560 5559 5558 5557 5556 5555 5554 5554 5553 5552 5551 5550 5547 5546 5544 5542 5541 5540 5539 5537 5534
5422 5426 5430 5432 5435 5440 5445 5449 5454 5459 5464 5468 5471 5474 5478 5481 5485 5488 5491 5494 5496 5498 5500 5502 5505 5507 5509 5511 5513 5515 5517 5519 5522 5524 5526 5528 5530 5532 5534 5535 5537 5538 5540 5542 5543 5544 5545 5547 5548 5549 5549 5549 5550 5550 5550 5551 5551 5551 5552 5552 5551 5552 5552 5552 5551 5551 5550 5549 5548 5547 5545 5544 5543 5542 5541 5540 5537 5536 5534 5532 5531 5529 5527 5526 5523
5410 5414 5418 5423 5427 5433 5438 5442 5447 5453 5458 5461 5464 5467 5470 5473 5476 5479 5483 5485 5488 5491 5493 5496 5498 5500 5501 5503 5506 5508 5510 5512 5514 5516 5518 5520 5523 5525 5527 5529 5531 5532 5534 5535 5536 5537 5538 5539 5540 5541 5541 5541 5542 5543 5543 5543 5543 5543 5544 5543 5543 5544 5544 5544 5543 5542 5542 5541 5539 5538 5536 5534 5533 5532 5531 5529 5527 5526 5524 5521 5520 5518 5516 5514 5511
5402 5404 5408 5414 5420 5425 5431 5436 5441 5446 5450 5453 5457 5460 5464 5466 5469 5471 5474 5477 5480 5483 5486 5488 5491 5493 5495 5497 5499 5500 5503 5505 5507 5509 5511 5513 5516 5518 5520 5522 5524 5525 5526 5528 5529 5530 5531 5532 5532 5532 5533 5533 5534 5535 5535 5535 5535 5535 5535 5535 5535 5536 5535 5535 5535 5534 5533 5532 5530 5529 5526 5524 5523 5522 5520 5519 5517 5515 5513 5510 5508 5506 5503 5501 5498
5397 5400 5404 5409 5414 5419 5424 5429 5433 5437 5442 5446 5450 5453 5456 5459 5461 5464 5466 5469 5472 5475 5478 5481 5484 5486 5488 5490 5491 5493 5495 5497 5499 5501 5504 5507 5509 5512 5514 5515 5516 5518 5519 5521 5522 5523 5523 5524 5524 5524 5525 5525 5526 5527 5527 5526 5526 5526 5526 5526 5526 5526 5526 5526 5526 5525 5524 5523 5522 5520 5517 5515 5513 5511 5510 5508 5506 5504 5501 5499 5497 5494 5491 5488 5485
5393 5398 5403 5407 5410 5414 5418 5422 5425 5430 5434 5438 5442 5445 5448 5451 5454 5456 5459 5462 5464 5468 5471 5474 5476 5479 5481 5483 5485 5486 5488 5490 5492 5495 5498 5500 5502 5505 5507 5508 5509 5511 5513 5514 5515 5515 5515 5516 5516 5516 5517 5518 5518 5518 5518 5518 5518 5517 5517 5517 5517 5517 5517 5517 5516 5515 5515 5513 5512 5510 5508 5506 5504 5502 5500 5497 5495 5493 5490 5487 5485 5482 5479 5477 5474
5389 5394 5398 5402 5406 5409 5413 5416 5419 5423 5426 5430 5434 5437 5441 5444 5447 5449 5452 5454 5457 5460 5463 5466 5470 5473 5475 5477 5478 5479 5481 5483 5486 5489 5491 5494 5496 5498 5499 5500 5502 5504 5505 5507 5508 5507 5508 5508 5508 5508 5509 5509 5510 5510 5510 5510 5510 5509 5509 5509 5508 5508 5508 5507 5506 5506 5505 5503 5502 5501 5499 5497 5495 5493 5490 5488 5485 5482 5480 5477 5474 5471 5468 5466 5463
5384 5388 5393 5397 5400 5404 5408 5411 5414 5417 5419 5422 5426 5430 5434 5437 5440 5443 5445 5447 5450 5453 5456 5459 5463 5465 5468 5470 5471 5472 5474 5476 5479 5482 5484 5487 5489 5490 5492 5494 5496 5497 5498 5499 5500 5499 5500 5500 5500 5501 5502 5501 5502 5502 5502 5502 5502 5501 5501 5500 5500 5499 5499 5498 5497 5496 5495 5493 5492 5491 5490 5488 5486 5484 5482 5479 5476 5473 5470 5467 5464 5461 5458 5456 5454
5379 5384 5389 5393 5396 5400 5404 5407 5409 5412 5413 5416 5419 5422 5426 5430 5433 5436 5438 5440 5442 5444 5447 5451 5455 5458 5461 5462 5463 5465 5467 5469 5472 5475 5477 5479 5481 5483 5485 5487 5489 5490 5491 5492 5492 5492 5492 5492 5493 5493 5493 5493 5494 5494 5494 5494 5493 5493 5493 5492 5491 5491 5490 5489 5488 5487 5485 5484 5483 5482 5481 5479 5477 5475 5473 5470 5467 5464 5461 5458 5455 5452 5449 5447 5445
5375 5379 5384 5388 5392 5395 5399 5401 5404 5406 5408 5410 5412 5416 5420 5423 5427 5430 5431 5432 5434 5436 5440 5444 5448 5452 5454 5455 5457 5459 5461 5464 5466 5469 5471 5473 5475 5476 5478 5480 5482 5483 5484 5484 5484 5484 5484 5484 5484 5484 5485 5485 5486 5486 5485 5485 5484 5484 5484 5483 5483 5482 5481 5480 5479 5478 5476 5475 5473 5472 5471 5469 5468 5466 5464 5461 5458 5455 5452 5449 5447 5444 5440 5438 5436
5371 5374 5378 5383 5387 5390 5393 5396 5399 5402 5404 5406 5408 5411 5414 5417 5421 5424 5425 5426 5428 5430 5434 5438 5442 5446 5448 5450 5452 5454 5457 5460 5463 5464 5466 5467 5468 5469 5471 5473 5474 5475 5476 5476 5476 5475 5475 5475 5476 5477 5477 5477 5477 5476 5476 5475 5475 5475 5475 5474 5473 5473 5472 5471 5469 5468 5466 5465 5464 5463 5461 5460 5458 5456 5454 5452 5448 5445 5442 5440 5438 5435 5432 5429 5427
5366 5369 5373 5377 5382 5385 5388 5391 5394 5397 5399 5401 5402 5404 5407 5410 5414 5416 5418 5420 5422 5425 5429 5433 5437 5439 5441 5444 5447 5449 5452 5456 5457 5457 5458 5459 5460 5462 5463 5465 5465 5466 5466 5466 5466 5466 5467 5468 5468 5468 5468 5468 5467 5467 5467 5466 5466 5466 5465 5465 5464 5463 5462 5461 5459 5458 5457 5456 5454 5453 5452 5450 5448 5446 5444 5441 5438 5435 5433 5431 5428 5426 5423 5420 5418
5361 5364 5366 5370 5375 5379 5383 5386 5389 5392 5394 5395 5396 5397 5400 5404 5406 5408 5410 5412 5415 5418 5422 5426 5429 5431 5433 5436 5439 5442 5444 5447 5448 5448 5449 5451 5452 5453 5455 5455 5456 5456 5457 5457 5457 5458 5460 5461 5460 5460 5459 5459 5458 5458 5457 5457 5457 5457 5456 5455 5454 5454 5452 5451 5449 5448 5447 5446 5445 5443 5442 5439 5437 5435 5433 5431 5428 5426 5423 5421 5419 5417 5414 5411 5409
5355 5357 5360 5364 5369 5373 5376 5380 5383 5385 5386 5388 5389 5391 5394 5397 5399 5401 5404 5406 5408 5412 5415 5418 5420 5423 5425 5428 5431 5433 5435 5438 5439 5440 5441 5442 5444 5445 5445 5446 5447 5448 5448 5448 5449 5451 5452 5452 5452 5451 5450 5450 5449 5449 5448 5448 5448 5447 5447 5446 5445 5444 5442 5441 5439 5438 5437 5437 5435 5433 5431 5429 5427 5424 5422 5420 5418 5416 5414 5411 5409 5407 5404 5402 5399
5350 5352 5355 5359 5364 5367 5371 5374 5376 5378 5380 5382 5384 5386 5388 5391 5393 5396 5398 5401 5403 5406 5409 5411 5414 5416 5419 5421 5424 5426 5428 5430 5431 5432 5432 5434 5435 5436 5436 5437 5438 5439 5439 5440 5442 5443 5444 5443 5443 5443 5442 5441 5441 5439 5439 5438 5438 5437 5437 5436 5435 5434 5432 5431 5430 5429 5428 5426 5425 5423 5421 5419 5416 5414 5412 5409 5407 5406 5404 5401 5399 5396 5393 5391 5389
5346 5349 5353 5357 5360 5363 5366 5368 5370 5373 5375 5377 5379 5381 5384 5386 5388 5390 5393 5396 5398 5400 5403 5405 5408 5410 5412 5415 5417 5419 5421 5423 5423 5423 5424 5425 5427 5427 5427 5427 5428 5430 5431 5433 5434 5435 5435 5435 5435 5435 5434 5432 5431 5430 5429 5428 5427 5427 5427 5427 5425 5424 5423 5421 5421 5419 5418 5416 5415 5413 5410 5408 5406 5403 5401 5399 5397 5395 5393 5391 5388 5386 5383 5380 5378
5343 5347 5350 5353 5355 5358 5361 5363 5365 5367 5369 5371 5373 5376 5378 5380 5382 5385 5388 5390 5393 5395 5398 5400 5402 5404 5406 5408 5410 5412 5414 5415 5416 5416 5416 5416 5418 5418 5418 5419 5421 5424 5425 5426 5427 5427 5427 5426 5426 5425 5424 5422 5421 5420 5419 5417 5417 5417 5417 5417 5416 5414 5413 5413 5411 5409 5408 5406 5404 5403 5400 5398 5396 5393 5391 5389 5388 5385 5383 5381 5378 5375 5372 5369 5367
5340 5343 5345 5347 5350 5352 5355 5357 5359 5361 5363 5365 5368 5370 5372 5374 5376 5379 5382 5384 5386 5389 5391 5393 5395 5397 5399 5401 5403 5405 5406 5407 5407 5407 5407 5408 5409 5409 5410 5412 5415 5418 5419 5419 5419 5418 5417 5417 5416 5415 5414 5413 5411 5410 5409 5408 5407 5407 5407 5407 5406 5405 5404 5403 5401 5399 5398 5396 5394 5392 5390 5388 5386 5383 5381 5380 5378 5375 5373 5371 5368 5365 5362 5359 5356
5336 5338 5340 5342 5344 5347 5349 5351 5353 5355 5357 5359 5361 5363 5366 5368 5371 5373 5375 5377 5379 5381 5383 5385 5387 5388 5390 5393 5395 5396 5397 5398 5398 5399 5399 5399 5400 5401 5403 5406 5409 5410 5411 5411 5411 5409 5408 5407 5406 5405 5404 5403 5401 5400 5399 5397 5397 5396 5396 5396 5396 5395 5394 5392 5391 5389 5388 5386 5384 5382 5380 5378 5376 5373 5371 5370 5368 5365 5363 5360 5357 5354 5351 5348 5345
5330 5333 5335 5337 5339 5341 5343 5345 5347 5349 5351 5353 5354 5356 5359 5361 5363 5366 5368 5370 5372 5374 5376 5378 5379 5381 5383 5385 5387 5388 5388 5389 5389 5389 5390 5391 5392 5394 5396 5398 5400 5401 5401 5401 5400 5399 5398 5397 5396 5395 5394 5393 5391 5390 5389 5387 5386 5386 5385 5385 5385 5384 5383 5381 5380 5379 5377 5375 5373 5371 5369 5367 5365 5363 5360 5359 5357 5354 5352 5349 5346 5343 5340 5337 5334
5325 5327 5329 5332 5333 5335 5337 5339 5340 5342 5344 5346 5347 5349 5351 5353 5355 5357 5359 5362 5364 5366 5368 5370 5371 5373 5375 5377 5378 5378 5379 5379 5380 5381 5383 5384 5386 5387 5388 5389 5389 5390 5390 5390 5389 5389 5388 5387 5387 5385 5384 5383 5381 5380 5379 5378 5377 5376 5375 5375 5374 5373 5372 5370 5369 5367 5366 5364 5362 5360 5358 5356 5354 5351 5349 5347 5346 5343 5340 5337 5334 5331 5328 5325 5322
5320 5322 5324 5325 5327 5329 5331 5333 5335 5336 5338 5339 5341 5343 5344 5346 5347 5349 5351 5353 5356 5358 5360 5362 5363 5365 5367 5368 5369 5370 5370 5371 5373 5374 5375 5376 5378 5379 5379 5379 5379 5379 5380 5379 5379 5379 5378 5377 5377 5375 5374 5373 5372 5370 5369 5368 5367 5367 5366 5365 5363 5362 5361 5359 5358 5356 5354 5352 5350 5348 5346 5344 5342 5339 5337 5336 5334 5331 5328 5326 5323 5319 5316 5314 5310
5315 5316 5318 5319 5321 5323 5325 5327 5329 5330 5331 5333 5335 5336 5338 5339 5340 5342 5343 5346 5348 5349 5351 5353 5355 5356 5357 5359 5360 5361 5362 5363 5364 5365 5366 5368 5369 5369 5370 5370 5370 5370 5370 5370 5369 5369 5368 5367 5366 5365 5364 5363 5362 5360 5359 5359 5358 5357 5356 5354 5353 5352 5350 5348 5347 5345 5343 5341 5339 5337 5335 5332 5329 5327 5326 5324 5321 5318 5316 5313 5310 5307 5304 5301 5298
5309 5311 5312 5314 5316 5317 5319 5321 5323 5324 5326 5327 5329 5330 5331 5333 5334 5335 5337 5338 5340 5342 5343 5344 5346 5347 5348 5350 5351 5352 5354 5355 5356 5357 5358 5359 5360 5360 5361 5361 5361 5361 5360 5360 5359 5358 5358 5357 5356 5355 5354 5353 5352 5351 5350 5349 5348 5347 5345 5344 5343 5341 5339 5337 5335 5333 5331 5329 5327 5325 5323 5320 5317 5315 5313 5311 5308 5305 5303 5301 5298 5295 5292 5290 5287
5305 5307 5308 5310 5311 5312 5314 5316 5317 5318 5320 5321 5323 5324 5325 5327 5328 5329 5331 5332 5333 5334 5335 5336 5337 5338 5340 5341 5343 5344 5346 5347 5348 5349 5350 5350 5351 5351 5351 5352 5351 5351 5350 5349 5348 5347 5347 5346 5346 5345 5344 5343 5342 5341 5340 5339 5337 5336 5335 5333 5332 5330 5328 5326 5324 5321 5319 5317 5315 5312 5310 5307 5305 5302 5300 5298 5295 5293 5291 5288 5286 5283 5280 5277 5274
5301 5302 5303 5304 5306 5307 5309 5310 5311 5312 5313 5315 5316 5318 5319 5320 5322 5323 5324 5325 5326 5326 5327 5328 5330 5331 5333 5334 5335 5337 5338 5340 5341 5341 5342 5342 5342 5342 5342 5342 5341 5341 5340 5339 5338 5338 5337 5336 5335 5334 5333 5332 5331 5331 5330 5329 5327 5326 5324 5322 5321 5319 5317 5314 5312 5309 5306 5304 5302 5300 5297 5294 5292 5289 5287 5285 5282 5279 5278 5275 5273 5270 5267 5264 5261
5296 5297 5298 5299 5300 5302 5303 5304 5305 5306 5307 5308 5310 5311 5312 5314 5315 5316 5317 5318 5319 5320 5321 5322 5323 5325 5326 5327 5328 5330 5331 5332 5332 5332 5332 5332 5332 5332 5331 5331 5331 5331 5330 5330 5329 5328 5327 5326 5325 5324 5323 5322 5321 5320 5319 5318 5317 5315 5313 5311 5309 5307 5304 5302 5299 5296 5294 5291 5289 5287 5284 5281 5279 5277 5274 5271 5268 5266 5264 5262 5259 5256 5253 5250 5247
5291 5292 5293 5294 5295 5296 5297 5298 5299 5300 5301 5303 5304 5305 5307 5308 5309 5310 5311 5312 5313 5314 5315 5316 5318 5319 5320 5320 5321 5322 5323 5323 5323 5324 5323 5323 5323 5322 5321 5321 5321 5321 5320 5320 5318 5318 5317 5315 5314 5314 5313 5312 5311 5310 5308 5307 5305 5303 5301 5299 5297 5294 5292 5289 5286 5284 5281 5278 5276 5274 5271 5269 5267 5264 5261 5258 5255 5252 5250 5248 5245 5242 5239 5236 5233
5285 5286 5287 5289 5290 5291 5292 5293 5294 5295 5296 5298 5299 5300 5302 5303 5304 5305 5306 5307 5308 5309 5310 5311 5312 5312 5313 5313 5314 5314 5314 5314 5314 5314 5314 5313 5313 5312 5311 5311 5311 5311 5310 5309 5308 5307 5306 5305 5304 5304 5302 5301 5300 5299 5297 5296 5294 5291 5289 5287 5284 5282 5279 5276 5273 5271 5269 5266 5263 5260 5258 5256 5253 5251 5248 5245 5241 5239 5236 5233 5231 5228 5225 5222 5219
5281 5282 5283 5284 5285 5286 5287 5289 5290 5291 5292 5293 5294 5296 5297 5298 5299 5300 5300 5301 5302 5303 5303 5304 5305 5305 5306 5306 5306 5306 5306 5305 5305 5305 5304 5304 5303 5302 5302 5301 5301 5300 5299 5299 5298 5297 5296 5295 5294 5293 5292 5290 5289 5287 5285 5283 5281 5279 5277 5274 5272 5269 5267 5264 5261 5259 5256 5252 5250 5247 5244 5242 5239 5237 5234 5231 5227 5224 5222 5219 5217 5214 5211 5207 5205
5277 5278 5279 5280 5281 5282 5283 5284 5285 5286 5287 5288 5289 5290 5291 5292 5293 5294 5294 5295 5295 5296 5297 5297 5297 5298 5298 5298 5298 5297 5297 5296 5296 5295 5294 5294 5293 5293 5292 5291 5291 5290 5289 5288 5287 5286 5285 5284 5283 5282 5280 5279 5277 5276 5274 5272 5269 5267 5265 5262 5260 5257 5254 5251 5248 5245 5242 5239 5236 5233 5230 5227 5225 5222 5219 5216 5213 5210 5207 5204 5202 5199 5195 5192 5190
5275 5275 5276 5276 5277 5278 5278 5279 5280 5281 5281 5282 5283 5284 5284 5285 5286 5287 5288 5288 5289 5289 5289 5289 5289 5289 5289 5289 5289 5288 5288 5287 5287 5286 5286 5285 5285 5284 5284 5283 5282 5281 5280 5279 5277 5276 5275 5274 5273 5271 5269 5268 5266 5263 5261 5259 5256 5254 5251 5249 5246 5244 5241 5237 5234 5231 5227 5223 5221 5218 5215 5212 5210 5207 5204 5201 5197 5194 5192 5189 5186 5183 5180 5177 5174
5271 5272 5272 5273 5273 5274 5274 5275 5275 5276 5276 5276 5277 5277 5278 5278 5279 5279 5280 5280 5280 5281 5281 5281 5282 5282 5282 5282 5281 5281 5281 5281 5280 5280 5279 5278 5278 5276 5275 5274 5273 5272 5271 5270 5268 5267 5266 5264 5262 5260 5257 5255 5252 5250 5247 5245 5242 5239 5237 5234 5232 5228 5225 5221 5218 5215 5211 5207 5204 5203 5201 5198 5195 5192 5189 5186 5182 5178 5175 5172 5170 5167 5164 5162 5159